Moline, IL
on Thursday, December 13, 2012

Thursday
Previous Day Next Day
Daily Summary
 ActualAverageRecord
Temperature
Mean Temperature °F 27°F  
Max Temperature 50°F 35°F 65°F (2015)
Min Temperature 24°F 19°F -15°F (1903)
Degree Days
Heating Degree Days 28 38  
Month to date heating degree days 331 465  
Since 1 July heating degree days 1676 1696  
Cooling Degree Days 0 0  
Month to date cooling degree days 0 0  
Year to date cooling degree days 1208 1004  
Moisture
Dew Point 22°F   
Average Humidity 61    
Maximum Humidity 85    
Minimum Humidity 36    
Precipitation
Precipitation 0.00 in 0.08 in 1.23 in (2015)
Month to date precipitation 0.30 1.05  
Year to date precipitation 24.88 36.83  
Snow
Snow 0.00 in 0.30 in in ()
Month to date snowfall T 3.3  
Since 1 July snowfall T 4.5  
Snow Depth 0.00 in   
Wind
Wind Speed 10 mph   
Max Wind Speed 21 mph   
Max Gust Speed 28 mph   
Visibility 10 miles   
Events     

Key: T is trace of precipitation, MM is missing value
Source: NWS Daily Summary
Time(CST)TemperatureDew PointHumidity Pressure Visibility Wind DirectionWind SpeedGust SpeedPrecipitationEvents Conditions
12:52 AM 37.0°F 21.9°F 54% 30.20 in 10.0 miles South 11.5 mph 19.6 mph N/A   Clear
1:52 AM 36.0°F 21.9°F 57% 30.21 in 10.0 miles South 12.7 mph - N/A   Clear
2:52 AM 35.1°F 21.9°F 59% 30.21 in 10.0 miles South 11.5 mph - N/A   Clear
3:52 AM 35.1°F 21.0°F 57% 30.20 in 10.0 miles South 13.8 mph - N/A   Clear
4:52 AM 34.0°F 21.0°F 59% 30.20 in 10.0 miles South 12.7 mph 20.7 mph N/A   Clear
5:52 AM 33.1°F 21.0°F 61% 30.17 in 10.0 miles South 13.8 mph - N/A   Clear
6:52 AM 34.0°F 19.9°F 56% 30.18 in 10.0 miles South 13.8 mph 21.9 mph N/A   Clear
7:52 AM 34.0°F 19.9°F 56% 30.17 in 10.0 miles South 12.7 mph 21.9 mph N/A   Clear
8:52 AM 37.9°F 19.9°F 48% 30.16 in 10.0 miles South 19.6 mph 26.5 mph N/A   Clear
9:52 AM 39.9°F 21.0°F 47% 30.16 in 10.0 miles SSW 15.0 mph 23.0 mph N/A   Clear
10:52 AM 44.1°F 21.9°F 42% 30.16 in 10.0 miles SSW 15.0 mph 21.9 mph N/A   Clear
11:52 AM 46.9°F 23.0°F 39% 30.13 in 10.0 miles SW 15.0 mph 23.0 mph N/A   Clear
12:52 PM 48.9°F 23.0°F 36% 30.11 in 10.0 miles SW 16.1 mph 21.9 mph N/A   Clear
1:52 PM 48.9°F 24.1°F 38% 30.09 in 10.0 miles SW 11.5 mph - N/A   Clear
2:52 PM 48.9°F 23.0°F 36% 30.09 in 10.0 miles SW 16.1 mph 23.0 mph N/A   Clear
3:52 PM 46.9°F 24.1°F 41% 30.09 in 10.0 miles SSW 10.4 mph - N/A   Clear
6:52 PM 32.0°F 25.0°F 75% 30.13 in 10.0 miles SSW 4.6 mph - N/A   Clear
7:52 PM 32.0°F 24.1°F 73% 30.13 in 10.0 miles Calm Calm - N/A   Clear
8:52 PM 33.1°F 25.0°F 72% 30.13 in 10.0 miles Calm Calm - N/A   Clear
9:52 PM 33.1°F 25.0°F 72% 30.14 in 10.0 miles Calm Calm - N/A   Clear
10:52 PM 28.9°F 24.1°F 82% 30.14 in 10.0 miles Calm Calm - N/A   Clear
11:52 PM 24.8°F 21.2°F 86% 30.13 in 10.0 miles Calm Calm - N/A   Clear
Astronomy
Sunrise:07:20 AM (CST) Moon Rise:07:28 AM (CST)12/13
Sunset:04:32 PM (CST) Moon Set:05:15 PM (CST)12/13
Moon Phase
Dec. 13 Dec. 20 Dec. 28 Jan. 05 Jan. 11

Copyright © 2016 The Weather Underground, Inc.















  Today is Tuesday July 26, the 208th day of 2016. There are 158 days left in the year.
1866 -- 150 years ago: The First National Bank Association of Moline has purchased a lot on the corner of Mill and Main streets and will soon begin the erection of building.
1891 -- 125 years ago: Messrs. S.S. Kemble, M.J. Galt and Ralph Haverstick reported catching huge strings of fish on their fishing trip at Watertown.
1916 -- 100 years ago: A.L. Larson saved several people from possible serious injury when he stopped a team of runaway horses after a dash of many blocks.
1941 -- 75 years ago: The Rock Island Retail Grocers and Meat Dealers Association will be closed tomorrow for the excursion to Muscatine and back.
1966 -- 50 years ago: A new 80-by-120 foot horse barn has been built to accommodate 100 horses for future projects at the Rock Island County Fairgrounds in East Moline. A similar structure to house the hog shows at the county fair also has been erected.
1991 -- 25 years ago: The two Hogan's Shell service station/video stores in Moline have been sold back to Shell Oil Co. and are being renovated into Mother Hubbard's Cupboard convenience stores.